Location: ???????
(55.8860°N, 38.0932°E)
Time: 17:22:43
(UTC+00:00)

Iridium 4 - Visible Passes

Search period start: 08 September 2024 00:00
Search period end: 18 September 2024 00:00
Orbit: 769 x 772 km, 86.4° (Epoch: 07 September)

Date Brightness Start Highest point End Pass type
(mag) Time Alt. Az. Time Alt. Az. Time Alt. Az.
08 Sep 6.2 16:58:39 10° SE 17:03:15 34° E 17:07:54 10° NNE visible
08 Sep 6.5 18:38:44 10° SSW 18:43:43 47° WNW 18:48:45 10° N visible
08 Sep 8.5 20:24:55 10° WNW 20:25:44 10° NW 20:26:33 10° NW visible
09 Sep 5.6 18:02:48 10° S 18:07:59 77° W 18:13:12 10° N visible
09 Sep 8.2 19:46:17 10° W 19:49:31 16° WNW 19:52:45 10° NNW visible
10 Sep 5.5 17:27:15 10° S 17:32:23 66° E 17:37:32 10° N visible
10 Sep 7.6 19:09:11 10° SW 19:13:27 25° WNW 19:17:44 10° NNW visible
11 Sep 6.0 16:52:06 10° SSE 16:56:54 40° E 17:01:43 10° NNE visible
11 Sep 6.8 18:32:40 10° SW 18:37:31 40° WNW 18:42:25 10° N visible
12 Sep 5.9 17:56:35 10° SSW 18:01:44 65° W 18:06:55 10° N visible
12 Sep 8.3 19:40:44 10° W 19:43:25 14° WNW 19:46:07 10° NNW visible
13 Sep 5.4 17:20:54 10° S 17:26:04 78° E 17:31:17 10° N visible
13 Sep 7.9 19:03:20 10° WSW 19:07:17 22° WNW 19:11:17 10° NNW visible
14 Sep 5.8 16:45:35 10° SSE 16:50:32 47° E 16:55:31 10° NNE visible
14 Sep 7.1 18:26:37 10° SW 18:31:18 34° WNW 18:36:02 10° N visible
15 Sep 6.2 17:50:23 10° SSW 17:55:28 54° W 18:00:35 10° N visible
15 Sep 8.5 19:35:23 10° WNW 19:37:20 12° WNW 19:39:17 10° NW visible
16 Sep 5.5 17:14:33 10° S 17:19:45 88° W 17:24:59 10° N visible
16 Sep 8.1 18:57:32 10° WSW 19:01:08 19° WNW 19:04:46 10° NNW visible
17 Sep 5.6 16:39:06 10° SSE 16:44:10 56° E 16:49:15 10° NNE visible
17 Sep 7.5 18:20:37 10° SW 18:25:05 29° WNW 18:29:36 10° N visible
